Weather History for Page, AZ

Change the Weather History Date:

Saturday, September 21, 2013

  Actual Average Record
Temperature  
Mean Temperature 76 °F -  
Max Temperature 89 °F 79 °F 91 °F (2010)
Min Temperature 63 °F 55 °F 41 °F (1978)
Cooling Degree Days 11    
Growing Degree Days 26 (Base 50)    
Moisture  
Dew Point 42 °F    
Average Humidity 29    
Maximum Humidity 45    
Minimum Humidity 12    
Precipitation  
Precipitation 0.00 in - - ()
Sea Level Pressure  
Sea Level Pressure 29.70 in    
Wind  
Wind Speed 6 mph (SSW)    
Max Wind Speed 16 mph    
Max Gust Speed 26 mph    
Visibility 10 miles    
Events      
Averages and records for this station are not official NWS values.
T = Trace of Precipitation, MM = Missing Value Source: NWS Daily Summary

Daily Weather History Graph

Daily Weather History Graph

Search for Another Location

Airport:

Trip Planner

Search our weather history database for the weather conditions in past years. The results will help you decide how hot, cold, wet, or windy it might be!

Date:

Astronomy

Sep. 21, 2013 Rise Set
Actual Time 6:13 AM MST 6:23 PM MST
Civil Twilight 5:47 AM MST 6:49 PM MST
Nautical Twilight 5:16 AM MST 7:19 PM MST
Astronomical Twilight 4:46 AM MST 7:50 PM MST
Moon 7:41 PM MST (9/21) 8:30 AM MST (9/21)
Length of Visible Light 13h 02m
Length of Day
12h 10m
Waning Gibbous, 94% of the Moon is Illuminated
Sep 21
Waning Gibbous
Sep 26
Last Quarter
Oct 4
New
Oct 11
First Quarter
Oct 18
Full

Hourly Weather History & Observations

Time (MST) Temp. Dew Point Humidity Pressure Visibility Wind Dir Wind Speed Gust Speed Precip Events Conditions
12:53 AM 66.9 °F 37.0 °F 33% 29.79 in 10.0 mi SSE 4.6 mph - N/A   Clear
1:53 AM 70.0 °F 37.9 °F 31% 29.78 in 10.0 mi SSW 4.6 mph - N/A   Clear
2:53 AM 69.1 °F 37.9 °F 32% 29.77 in 10.0 mi Variable 3.5 mph - N/A   Clear
3:53 AM 63.0 °F 39.9 °F 43% 29.79 in 10.0 mi SSE 5.8 mph - N/A   Clear
4:53 AM 63.0 °F 41.0 °F 45% 29.79 in 10.0 mi Calm Calm - N/A   Clear
5:53 AM 70.0 °F 41.0 °F 35% 29.79 in 10.0 mi SSW 9.2 mph - N/A   Clear
6:53 AM 69.1 °F 43.0 °F 39% 29.81 in 10.0 mi SSW 9.2 mph - N/A   Clear
7:53 AM 71.1 °F 45.0 °F 39% 29.82 in 10.0 mi South 4.6 mph - N/A   Mostly Cloudy
8:53 AM 73.9 °F 46.0 °F 37% 29.82 in 10.0 mi Calm Calm - N/A   Scattered Clouds
9:53 AM 75.9 °F 45.0 °F 33% 29.81 in 10.0 mi North 4.6 mph - N/A   Clear
10:53 AM 81.0 °F 46.0 °F 29% 29.78 in 10.0 mi NW 3.5 mph - N/A   Clear
11:53 AM 84.9 °F 46.0 °F 26% 29.75 in 10.0 mi NNE 8.1 mph - N/A   Clear
12:53 PM 88.0 °F 45.0 °F 22% 29.71 in 10.0 mi South 12.7 mph 23.0 mph N/A   Partly Cloudy
1:53 PM 86.0 °F 43.0 °F 22% 29.67 in 10.0 mi SW 10.4 mph 24.2 mph N/A   Partly Cloudy
2:53 PM 88.0 °F 43.0 °F 21% 29.63 in 10.0 mi SSW 13.8 mph 23.0 mph N/A   Partly Cloudy
3:53 PM 89.1 °F 39.0 °F 17% 29.61 in 10.0 mi SSW 16.1 mph 26.5 mph N/A   Clear
4:53 PM 86.0 °F 41.0 °F 20% 29.60 in 10.0 mi WSW 10.4 mph 19.6 mph N/A   Clear
5:53 PM 82.9 °F 43.0 °F 24% 29.58 in 10.0 mi SW 9.2 mph 16.1 mph N/A   Clear
6:53 PM 82.0 °F 44.1 °F 26% 29.58 in 10.0 mi SW 9.2 mph 17.3 mph N/A   Clear
7:53 PM 77.0 °F 44.1 °F 31% 29.59 in 10.0 mi South 5.8 mph - N/A   Clear
8:53 PM 78.1 °F 43.0 °F 29% 29.59 in 10.0 mi South 10.4 mph - N/A   Clear
9:53 PM 77.0 °F 41.0 °F 28% 29.60 in 10.0 mi SSW 5.8 mph - N/A   Clear
10:53 PM 75.9 °F 42.1 °F 30% 29.58 in 10.0 mi South 5.8 mph - N/A   Clear
11:53 PM 73.0 °F 42.1 °F 33% 29.57 in 10.0 mi South 9.2 mph - N/A   Clear